{"data":{"norad_id":45786,"epoch":"2026-09-19T18:18:55.081728Z","epoch_age_seconds":81715,"freshness":"FRESH","line1":"1 45786U 20038BJ  26262.76313752  .00030991  00000+0  88233-3 0  9993","line2":"2 45786  53.1586   7.0987 0002660 333.0984  26.9881 15.35869888346597","mean_motion":15.35869888,"eccentricity":0.000266,"inclination_deg":53.1586,"raan_deg":7.0987,"arg_perigee_deg":333.0984,"mean_anomaly_deg":26.9881,"bstar":0.00088233,"rev_number":34659,"period_min":93.75794207901,"perigee_km":456.5194056263,"apogee_km":460.15641027733,"semimajor_km":6836.4749079518,"source":"CELESTRAK","updated_at":"2026-09-20T09:00:38.458963Z"}}